Weather History for Patuxent River, MD

Change the Weather History Date:

Friday, November 22, 2013

  Actual Average Record
Temperature  
Mean Temperature 55 °F -  
Max Temperature 64 °F 51 °F 73 °F (1979)
Min Temperature 46 °F 36 °F 24 °F (1987)
Degree Days  
Heating Degree Days 10    
Growing Degree Days 5 (Base 50)    
Moisture  
Dew Point 50 °F    
Average Humidity 81    
Maximum Humidity 94    
Minimum Humidity 64    
Precipitation  
Precipitation 0.02 in - - ()
Sea Level Pressure  
Sea Level Pressure 30.17 in    
Wind  
Wind Speed 5 mph (SW)    
Max Wind Speed 16 mph    
Max Gust Speed 20 mph    
Visibility 10 miles    
Events Rain    
Averages and records for this station are not official NWS values.
T = Trace of Precipitation, MM = Missing Value Source: NWS Daily Summary

Daily Weather History Graph

Daily Weather History Graph

Search for Another Location

Airport:

Trip Planner

Search our weather history database for the weather conditions in past years. The results will help you decide how hot, cold, wet, or windy it might be!

Date:

Astronomy

Nov. 22, 2013 Rise Set
Actual Time 6:54 AM EST 4:48 PM EST
Civil Twilight 6:26 AM EST 5:17 PM EST
Nautical Twilight 5:53 AM EST 5:49 PM EST
Astronomical Twilight 5:22 AM EST 6:21 PM EST
Moon 9:17 PM EST (11/22) 10:37 AM EST (11/22)
Length of Visible Light 10h 51m
Length of Day
9h 54m
Waning Gibbous, 78% of the Moon is Illuminated
Nov 22
Waning Gibbous
Nov 25
Last Quarter
Dec 2
New
Dec 9
First Quarter
Dec 17
Full

Hourly Weather History & Observations

Time (EST) Temp. Windchill Dew Point Humidity Pressure Visibility Wind Dir Wind Speed Gust Speed Precip Events Conditions
12:52 AM 48.0 °F - 45.0 °F 89% 30.39 in 10.0 mi WNW 3.5 mph - 0.00 in   Overcast
1:06 AM 46.4 °F 45.2 °F 44.6 °F 93% 30.38 in 10.0 mi WNW 3.5 mph - N/A   Overcast
1:52 AM 48.0 °F - 45.0 °F 89% 30.38 in 10.0 mi Calm Calm - N/A   Overcast
2:52 AM 48.0 °F - 44.1 °F 86% 30.34 in 10.0 mi Calm Calm - N/A   Overcast
3:52 AM 48.9 °F - 46.0 °F 90% 30.32 in 10.0 mi SSW 4.6 mph - N/A   Overcast
4:52 AM 51.1 °F - 48.0 °F 89% 30.29 in 10.0 mi South 4.6 mph - N/A   Overcast
5:02 AM 50.0 °F - 48.2 °F 94% 30.29 in 10.0 mi SW 4.6 mph - N/A   Mostly Cloudy
5:52 AM 50.0 °F - 48.0 °F 93% 30.27 in 10.0 mi SSW 4.6 mph - N/A   Mostly Cloudy
6:52 AM 51.1 °F - 47.7 °F 88% 30.28 in 10.0 mi WSW 8.1 mph - N/A   Mostly Cloudy
7:23 AM 51.8 °F - 48.2 °F 88% 30.28 in 10.0 mi SW 8.1 mph - N/A   Overcast
7:52 AM 52.0 °F - 48.9 °F 89% 30.26 in 10.0 mi SW 8.1 mph - N/A   Mostly Cloudy
8:52 AM 53.1 °F - 48.9 °F 86% 30.25 in 10.0 mi WSW 9.2 mph - N/A   Mostly Cloudy
9:52 AM 55.9 °F - 48.9 °F 77% 30.24 in 10.0 mi SW 13.8 mph - N/A   Mostly Cloudy
10:52 AM 62.1 °F - 50.0 °F 65% 30.20 in 10.0 mi SW 16.1 mph - N/A   Mostly Cloudy
11:52 AM 62.1 °F - 50.0 °F 65% 30.17 in 10.0 mi WSW 13.8 mph 19.6 mph N/A   Mostly Cloudy
12:52 PM 62.1 °F - 50.0 °F 65% 30.14 in 10.0 mi SW 9.2 mph - N/A   Overcast
1:52 PM 63.0 °F - 51.1 °F 65% 30.11 in 10.0 mi WSW 5.8 mph - N/A   Overcast
2:40 PM 64.4 °F - 51.8 °F 64% 30.09 in 10.0 mi SW 8.1 mph - 0.00 in Rain Light Rain
2:52 PM 64.0 °F - 52.0 °F 65% 30.09 in 10.0 mi SW 4.6 mph - 0.00 in Rain Light Rain
3:22 PM 64.4 °F - 53.6 °F 68% 30.08 in 10.0 mi Calm Calm - 0.00 in   Overcast
3:52 PM 64.0 °F - 52.0 °F 65% 30.07 in 10.0 mi Calm Calm - 0.00 in   Overcast
4:30 PM 60.8 °F - 51.8 °F 72% 30.06 in 10.0 mi Calm Calm - 0.00 in Rain Light Rain
4:52 PM 57.9 °F - 51.1 °F 78% 30.05 in 10.0 mi Calm Calm - 0.00 in Rain Light Rain
5:52 PM 55.9 °F - 53.1 °F 90% 30.04 in 10.0 mi Calm Calm - 0.01 in Rain Light Rain
6:52 PM 57.0 °F - 54.0 °F 89% 30.02 in 10.0 mi Calm Calm - 0.00 in Rain Light Rain
7:52 PM 61.0 °F - 55.0 °F 81% 30.00 in 10.0 mi SSW 4.6 mph - 0.00 in Rain Light Rain
8:52 PM 61.0 °F - 55.0 °F 81% 29.99 in 10.0 mi SSW 8.1 mph - 0.01 in Rain Light Rain
9:52 PM 60.1 °F - 55.9 °F 86% 30.00 in 10.0 mi WSW 9.2 mph - 0.00 in Rain Light Rain
10:52 PM 59.0 °F - 55.0 °F 87% 30.02 in 10.0 mi NW 10.4 mph - 0.00 in Rain Light Rain
11:52 PM 57.0 °F - 55.0 °F 93% 30.01 in 10.0 mi West 4.6 mph - 0.00 in   Mostly Cloudy